Flag for United Kingdom Weather past 2 weeks in Newport (Isle of Wight), England, United Kingdom

Now
52 °F

Cool.


Feels Like: 45 °F
Forecast: N/A
Wind: 25 mph from Southwest

Location: Solent M. R. S. C.

Current Time: Dec 22, 2014 at 11:07:10 PM

Latest Report: Dec 22, 2014 at 10:00 PM


Visibility: N/A

Pressure: 30.14 "Hg

Humidity: 92%

Dew point: 50 °F

Location of Newport (Isle of Wight)Location

Historic Weather in Newport (Isle of Wight) — Graph

°F

Newport (Isle of Wight) temperature yesterday

Maximum temperature yesterday: 52 °F (at 11:00 PM)
Minimum temperature yesterday: 45 °F (at 12:00 AM)
Average temperature yesterday: 49 °F

Past Weeks' High & Low Weather Summary

 TemperatureHumidityPressure
High54 °F (Dec 17, 3:00 PM)100% (Dec 9, 10:00 PM)30.49 "Hg (Dec 9, 10:00 PM)
Low32 °F (Dec 14, 4:00 AM)62% (Dec 8, 2:00 PM)29.29 "Hg (Dec 12, 6:00 AM)
Average47 °F89%30.00 "Hg
* Reported Dec 7 9:00 PM — Dec 22 9:00 PM, Newport (Isle of Wight), Weather by CustomWeather, © 2014

Note: Actual official high and low records may vary slightly from our data, if they occured in-between our weather recording intervals... More about our weather records

Advertising

Newport (Isle of Wight) weather history for previous 24 hours

 ConditionsComfort  
Time TempWeatherWind HumidityBarometerVisibility
9:00 PM
Dec 22
51 °FCool.25 mph92%30.14 "HgN/A
8:00 PM51 °FCool.25 mph93%30.14 "HgN/A
7:00 PM51 °FCool.25 mph89%30.14 "HgN/A
3:00 PM52 °FCool.35 mph93%30.11 "HgN/A
2:00 PM53 °FCool.36 mph94%30.11 "HgN/A
1:00 PM53 °FCool.35 mph91%30.12 "HgN/A
12:00 PM53 °FCool.35 mph94%30.14 "HgN/A
11:00 AM53 °FCool.35 mph96%30.15 "HgN/A
10:00 AM52 °FCool.30 mph99%30.15 "HgN/A
9:00 AM51 °FCool.28 mph100%30.16 "HgN/A
8:00 AM52 °FCool.32 mph100%30.14 "HgN/A
7:00 AM52 °FCool.32 mph100%30.13 "HgN/A
6:00 AM52 °FCool.35 mph100%30.13 "HgN/A
5:00 AM52 °FCool.31 mph100%30.14 "HgN/A
4:00 AM52 °FCool.33 mph100%30.15 "HgN/A
3:00 AM52 °FCool.33 mph100%30.17 "HgN/A
2:00 AM52 °FCool.33 mph100%30.18 "HgN/A
1:00 AM52 °FCool.35 mph99%30.19 "HgN/A
12:00 AM52 °FCool.37 mph99%30.21 "HgN/A
11:00 PM
Dec 21
52 °FCool.40 mph99%30.22 "HgN/A
Weather by CustomWeather, © 2014

See weather overviewHow to use our weather pages